Location: Newark
(47.5000°N, 4.6167°E)
Time: 01:54:55
(UTC+00:00)

ISS - Pass Details

Date: 17 May 2021
Orbit: 417 x 422 km, 51.6° (Epoch: 14 June)

Event Time Altitude Azimuth Distance (km) Brightness Sun altitude
Rises 01:40:18 0° 293° (WNW) 2,373 0.0 -17.7°
Reaches altitude 10° 01:42:25 10° 289° (WNW) 1,507 -1.1 -17.5°
Maximum altitude 01:45:44 54° 211° (SSW) 521 -3.7 -17.3°
Drops below altitude 10° 01:49:02 10° 134° (SE) 1,502 -1.1 -17.0°
Sets 01:51:09 0° 129° (SE) 2,364 0.0 -16.8°
